Free Severe Weather Alerts by Email and Text Message   

 
Follow iAlert.com on twitter @ialertcom
Search For Active Alerts in Your Area  
  Hi Guest:  [ Sign-up / Services ] [ Login ]

Current weather by "City, St" or "zip code"  

 

Advertise Here

Hazardous Weather Conditions

No active alerts for SAN ANTONIO, TEXAS

Current Conditions: SAN ANTONIO, TEXAS

Overcast


70.0 F

Last Updated on Apr 28 2017, 12:55 am CDT
Humidity: 81%
Wind Speed: SE 11.5 mph
Barometer 29.65 in
Dewpoint: 63.5 F
Visibility: 7.00 mi
Precip: --
Heat Index: NA
Wind Chill: NA
Current conditions at:

Castroville Municipal Airport, TX (KCVB)

Lat: 29.34 Lon: -98.850

Local Radar Image active severe weather and emergency alerts image image weather storm and storm spotter reports image weather observation monitoring service image
Local
Radar
Active
Alerts
Storm Reports Weather
Monitoring

Weather Alert Notification Services


ialert severe weather and emergency alerts by text message and email ialert daily weather forecast by email and text message service ialert real-time weather-observation monitoring and alert notification service ialert storm report monitoring alert notification

Observation History for SAN ANTONIO, TEXAS


Time Wind
(mph)
Vis
(mi)
Weather Precip (in) Temperature (F) Relative
Humidity
Wind
Chill
(°F)
Heat
Index
(°F)
Pressure
Air Dwpt altimeter
(in)
sea level
(mb)
12:55 am CDT SE 11.5 7.00 Overcast -- 70.0 63.5 81% NA NA 29.65 M
12:35 am CDT SE 9.2 G 18.4 7.00 Overcast -- 70.0 63.5 81% NA NA 29.65 M
11:55 pm CDT SE 11.5 G 17.3 7.00 Overcast -- 70.0 63.5 80% NA NA 29.65 M
10:55 pm CDT SE 10.4 G 18.4 7.00 Fair -- 73.0 62.6 70% NA NA 29.65 M
9:55 pm CDT SE 10.4 G 16.1 10.00 Fair -- 76.0 60.3 58% NA NA 29.64 M
8:55 pm CDT SE 13.8 G 18.4 10.00 Fair -- 80.0 60.3 52% NA 81 29.62 M
7:50 pm CDT SE 12.7 10.00 Fair -- 83.0 56.7 41% NA 82 29.61 M
7:35 pm CDT SE 11.5 G 16.1 10.00 Fair -- 83.0 56.5 40% NA 82 29.61 M
6:55 pm CDT SE 11.5 10.00 Fair -- 85.0 55.8 37% NA 84 29.62 M
6:35 pm CDT S 11.5 G 17.3 10.00 Fair -- 85.0 54.9 35% NA 84 29.62 M
5:50 pm CDT S 6.9 10.00 Fair -- 88.0 52.5 30% NA 86 29.63 M
4:55 pm CDT SE 6.9 G 16.1 10.00 Fair -- 87.0 47.7 26% NA 84 29.65 M
3:55 pm CDT S 6.9 G 17.3 10.00 Fair -- 87.0 45.1 23% NA 84 29.69 M
2:55 pm CDT SE 9.2 G 18.4 10.00 Fair -- 84.0 43.9 25% NA 82 29.73 M
1:55 pm CDT S 10.4 10.00 Fair -- 81.0 44.1 27% NA 80 29.77 M
1:35 pm CDT S 10.4 G 17.3 10.00 Fair -- 80.0 43.9 28% NA 79 29.78 M
12:50 pm CDT S 9.2 10.00 Fair -- 77.0 42.6 29% NA NA 29.81 M
11:55 am CDT SE 5.8 10.00 Fair -- 73.0 42.8 34% NA NA 29.84 M
10:55 am CDT SE 8.1 10.00 Fair -- 71.0 43.9 38% NA NA 29.85 M
9:55 am CDT SE 5.8 10.00 Fair -- 66.0 45.1 46% NA NA 29.86 M
9:35 am CDT SE 5.8 10.00 Fair -- 65.0 44.8 48% NA NA 29.86 M
8:55 am CDT SE 4.6 10.00 Fair -- 62.0 47.1 59% 62 NA 29.86 M
7:55 am CDT N 0.0 10.00 Fair -- 55.0 46.4 74% NA NA 29.84 M
6:55 am CDT N 0.0 10.00 Fair -- 51.0 44.1 78% NA NA 29.82 M

Regional Weather Observation:


San Antonio, San Antonio International Airport, TX (KSAT)

Overcast
70.0 F

Kelly Air Force Base, TX (KSKF)

Overcast
70.0 F

San Antonio, Stinson Municipal Airport, TX (KSSF)

Overcast
72.0 F

Randolph Air Force Base, TX (KRND)

Overcast
70.0 F

New Braunfels, New Braunfels Municipal Airport, TX (KBAZ)

Overcast
71.0 F

Kerrville, Kerrville Municipal Airport/Louis Schreiner Field, TX (KERV)

Mostly Cloudy
69.0 F

Advertise Here


Advertise Here